EW4195 Weather Reports


time (UTC)temp
F
wind
direction
speed
knots
gust
knots
rain 1hr
in
rain 24hr
in
rain mn
in
humidity
%
barometer
mb
20260506033151 50 19 4.3 11.3 0.00 0.00 0.00 1 1010.7
20260506032152 50 33 5.2 12.2 0.00 0.00 0.00 1 1010.7
20260506031119 51 350 6.1 12.2 0.00 0.00 0.00 1 1010.7
20260506030107 51 5 5.2 12.2 0.00 0.00 0.00 1 1010.8
20260506025118 51 0 6.1 11.3 0.00 0.00 0.00 1 1010.9
20260506024107 51 5 4.3 11.3 0.00 0.00 0.00 1 1010.9
20260506023048 51 342 5.2 11.3 0.00 0.00 0.00 1 1011.0
20260506022018 51 26 6.1 11.3 0.00 0.00 0.00 1 1011.1
20260506021041 51 49 6.1 10.4 0.00 0.00 0.00 1 1011.0
20260506020007 52 41 4.3 11.3 0.00 0.00 0.00 1 1011.0
20260506013831 52 19 4.3 11.3 0.00 0.00 0.00 1 1011.0
20260506012819 52 19 5.2 12.2 0.00 0.00 0.00 1 1011.0
20260506011817 52 22 6.1 12.2 0.00 0.00 0.00 1 1011.0
20260506010743 52 53 6.1 12.2 0.00 0.00 0.00 1 1011.2
20260506004628 52 24 6.1 11.3 0.00 0.00 0.00 1 1011.2
20260506003607 52 26 6.1 11.3 0.00 0.00 0.00 1 1011.3
20260506002611 52 33 6.1 11.3 0.00 0.00 0.00 1 1011.3
20260506001627 52 19 6.1 11.3 0.00 0.00 0.00 1 1011.3
20260506000603 52 40 5.2 12.2 0.00 0.00 0.00 1 1011.4
20260505235609 53 55 7.0 15.6 0.00 0.00 0.00 1 1011.4
20260505234600 53 41 7.0 15.6 0.00 0.00 0.00 1 1011.4
20260505233619 53 65 7.0 14.8 0.00 0.00 0.00 1 1011.4
20260505232635 53 14 6.1 12.2 0.00 0.00 0.00 1 1011.4
20260505231639 53 5 6.1 14.8 0.00 0.00 0.00 1 1011.3
20260505230616 53 24 7.0 14.8 0.00 0.00 0.00 1 1011.3
20260505225541 53 75 7.0 13.0 0.00 0.00 0.00 1 1011.4
20260505223350 53 36 7.0 13.9 0.00 0.00 0.00 1 1011.5
20260505222346 53 72 7.8 14.8 0.00 0.00 0.00 1 1011.5
20260505221410 53 36 6.1 14.8 0.00 0.00 0.00 1 1011.5
20260505220343 53 59 6.1 13.0 0.00 0.00 0.00 1 1011.5
20260505214226 53 28 6.1 13.9 0.00 0.00 0.00 1 1011.4
20260505213234 53 57 4.3 12.2 0.00 0.00 0.00 1 1011.5
20260505212201 53 71 5.2 13.0 0.00 0.00 0.00 1 1011.5
20260505211149 53 34 5.2 13.0 0.00 0.00 0.00 1 1011.5
20260505204953 53 71 3.5 9.6 0.00 0.00 0.00 1 1011.4
20260505204000 53 56 3.5 8.7 0.00 0.00 0.00 1 1011.4
20260505202950 53 58 4.3 11.3 0.00 0.00 0.00 1 1011.4
20260505201914 53 60 5.2 11.3 0.00 0.00 0.00 1 1011.3
20260505200904 53 57 4.3 11.3 0.00 0.00 0.00 1 1011.2
20260505195900 53 70 4.3 11.3 0.00 0.00 0.00 1 1011.1
20260505194837 53 34 3.5 8.7 0.00 0.00 0.00 1 1010.9
20260505193810 53 69 3.5 8.7 0.00 0.00 0.00 1 1010.9
20260505192758 54 58 3.5 7.8 0.00 0.00 0.00 1 1010.8
20260505191801 54 54 3.5 8.7 0.00 0.00 0.00 1 1010.7
20260505190742 54 67 3.5 10.4 0.00 0.00 0.00 1 1010.7
20260505185745 55 52 3.5 10.4 0.00 0.00 0.00 1 1010.6
20260505184724 55 42 4.3 10.4 0.00 0.00 0.00 1 1010.5
20260505183700 55 45 4.3 10.4 0.00 0.00 0.00 1 1010.5
20260505182723 56 22 3.5 10.4 0.00 0.00 0.00 3 1010.5
20260505181707 56 62 3.5 8.7 0.00 0.00 0.00 6 1010.5
20260505180714 56 79 3.5 9.6 0.00 0.00 0.00 5 1010.5
20260505175643 56 54 3.5 9.6 0.00 0.00 0.00 5 1010.5
20260505173438 56 82 3.5 8.7 0.00 0.00 0.00 1 1010.5
20260505172412 56 53 3.5 9.6 0.00 0.00 0.00 5 1010.4
20260505170230 57 32 3.5 9.6 0.00 0.00 0.00 14 1010.5
20260505165244 57 46 4.3 9.6 0.00 0.00 0.00 19 1010.5
20260505164212 57 64 4.3 8.7 0.00 0.00 0.00 14 1010.6
20260505163157 57 35 3.5 11.3 0.00 0.00 0.00 12 1010.5
20260505162204 57 78 5.2 11.3 0.00 0.00 0.00 17 1010.4
20260505161132 57 78 4.3 11.3 0.00 0.00 0.00 13 1010.5
20260505152709 57 71 4.3 10.4 0.00 0.00 0.00 1 1010.8
20260505151714 57 44 4.3 10.4 0.00 0.00 0.00 1 1010.8
20260505150642 57 51 4.3 10.4 0.00 0.00 0.00 1 1010.9
20260505140621 57 83 5.2 12.2 0.00 0.00 0.00 1 1011.3
20260505130309 57 23 5.2 11.3 0.00 0.00 0.00 1 1011.3
20260505124217 57 78 4.3 10.4 0.00 0.00 0.00 1 1011.3
20260505123230 57 58 5.2 10.4 0.00 0.00 0.00 1 1011.4
20260505121041 56 76 5.2 10.4 0.00 0.00 0.00 1 1011.3
20260505120041 57 71 6.1 12.2 0.00 0.00 0.00 1 1011.4
20260505115105 58 79 5.2 12.2 0.00 0.00 0.00 1 1011.5
20260505114115 57 34 4.3 11.3 0.00 0.00 0.00 1 1011.5
20260505113123 57 74 5.2 11.3 0.00 0.00 0.00 1 1011.6
20260505112101 56 68 5.2 10.4 0.00 0.00 0.00 1 1011.5
20260505111105 56 30 5.2 12.2 0.00 0.00 0.00 1 1011.6
20260505110116 56 50 5.2 12.2 0.00 0.00 0.00 1 1011.6
20260505101930 55 28 5.2 9.6 0.00 0.00 0.00 1 1011.9
20260505100937 56 51 5.2 9.6 0.00 0.00 0.00 1 1011.9
20260505100544 56 27 5.2 10.4 0.00 0.00 0.00 1 1012.0
20260505095542 56 15 5.2 10.4 0.00 0.00 0.00 1 1012.0
20260505094549 56 33 4.3 10.4 0.00 0.00 0.00 1 1012.0
20260505092443 56 55 4.3 10.4 0.00 0.00 0.00 1 1012.1
20260505091455 56 40 5.2 10.4 0.00 0.00 0.00 1 1012.0
20260505090511 55 38 5.2 9.6 0.00 0.00 0.00 1 1012.0
20260505085535 55 56 4.3 10.4 0.00 0.00 0.00 1 1012.0
20260505084525 55 48 4.3 10.4 0.00 0.00 0.00 1 1012.1
20260505083456 55 35 5.2 8.7 0.00 0.00 0.00 1 1012.1
20260505082444 55 23 4.3 9.6 0.00 0.00 0.00 1 1011.9
20260505081416 54 11 5.2 11.3 0.00 0.00 0.00 1 1011.9
20260505080438 54 71 6.1 11.3 0.00 0.00 0.00 1 1011.9
20260505075402 54 44 4.3 10.4 0.00 0.00 0.00 1 1011.9
20260505074346 54 34 3.5 9.6 0.00 0.00 0.00 1 1011.9
20260505073402 53 53 4.3 9.6 0.00 0.00 0.00 1 1012.0
20260505072343 53 44 4.3 9.6 0.00 0.00 0.00 1 1012.0
20260505071358 53 63 3.5 8.7 0.00 0.00 0.00 1 1012.1
20260505070355 53 53 5.2 9.6 0.00 0.00 0.00 1 1012.0
20260505064303 53 38 5.2 10.4 0.00 0.00 0.00 1 1011.9
20260505063322 53 49 5.2 10.4 0.00 0.00 0.00 1 1011.8
20260505062309 52 66 4.3 8.7 0.00 0.00 0.00 1 1011.9
20260505061303 52 53 3.5 8.7 0.00 0.00 0.00 1 1012.1
20260505060314 52 26 2.6 7.8 0.00 0.00 0.00 1 1012.2
20260505055242 51 54 3.5 7.0 0.00 0.00 0.00 1 1012.2
20260505054258 51 32 1.7 7.0 0.00 0.00 0.00 1 1012.2
20260505053307 51 49 1.7 6.1 0.00 0.00 0.00 1 1012.2
20260505052327 51 52 1.7 5.2 0.00 0.00 0.00 1 1012.2
20260505051259 51 60 1.7 6.1 0.00 0.00 0.00 1 1012.2
20260505050247 50 49 2.6 7.0 0.00 0.00 0.00 1 1012.2
20260505041000 51 71 2.6 8.7 0.00 0.00 0.00 1 1012.1
20260505040015 51 47 2.6 8.7 0.00 0.00 0.00 1 1012.2
20260505035014 51 71 2.6 7.0 0.00 0.00 0.00 1 1012.2